Location: Waltman Observatory
(32.5145°N, 90.4450°W)
Time: 17:28:24
(UTC-05:00)

Amateur Radio Satellites - All Passes

Search period start: 01 August 2014 16:58
Search period end: 02 August 2014 16:58
Location: Waltman Observatory, 32.5145°N, 90.4450°W

Satellite Date Start Highest point End Downlink Frequencies (MHz)
Time Altitude Azimuth
JAS-2 01 Aug 16:58:20 17:02:39 16° 63° (ENE) 17:06:47 435.800 - 435.900 CW/SSB, 435.910 FM
KITSAT 1 01 Aug 17:00:11 17:06:17 24° 256° (WSW) 17:12:23 435.175 FM
AO-7 01 Aug 17:20:29 17:28:29 50° 258° (WSW) 17:36:33 29.400 - 29.500 MHz
OPAL 01 Aug 17:46:18 17:51:07 43° 290° (WNW) 17:55:58 ?
Hamsat 01 Aug 18:01:39 18:05:39 47° 75° (ENE) 18:09:41 145.90 MHz
STRAND 1 01 Aug 18:38:52 18:41:37 15° 94° (E) 18:44:22 ?
JAS-2 01 Aug 18:39:01 18:46:52 87° 257° (WSW) 18:54:13 435.800 - 435.900 CW/SSB, 435.910 FM
SO-67 01 Aug 18:55:22 18:58:09 23° 73° (ENE) 19:00:56 435.3500 MHz FM
RS-15 01 Aug 19:16:22 19:19:00 11° 20° (NNE) 19:21:38 29.354 - 29.394 USB, Beacon 29.352 USB
HO-68 01 Aug 19:36:02 19:38:48 13° 57° (ENE) 19:41:33 435.675 MHz FM
Hamsat 01 Aug 19:41:28 19:41:50 10° 268° (W) 19:42:12 145.90 MHz
SO-50 01 Aug 20:05:39 20:09:07 20° 52° (NE) 20:12:36 436.795 FM
STRAND 1 01 Aug 20:16:07 20:21:01 50° 287° (WNW) 20:25:55 ?
JAS-2 01 Aug 20:29:09 20:32:21 13° 269° (W) 20:35:30 435.800 - 435.900 CW/SSB, 435.910 FM
SO-67 01 Aug 20:29:20 20:31:10 14° 266° (W) 20:33:00 435.3500 MHz FM
UKube-1 01 Aug 20:36:29 20:38:58 15° 67° (ENE) 20:41:26 145.840 MHz, 145.915 MHz
MaSat-1 01 Aug 20:42:40 20:46:34 59° 295° (WNW) 20:51:08 437.345 MHz
Oscar 11 01 Aug 21:16:20 21:19:31 20° 70° (ENE) 21:22:42 145.825 FM, Beacon 2401.500 USB
HO-68 01 Aug 21:18:14 21:25:24 82° 74° (ENE) 21:32:35 435.675 MHz FM
RS-15 01 Aug 21:25:36 21:35:48 40° 51° (NE) 21:46:16 29.354 - 29.394 USB, Beacon 29.352 USB
UOSAT-12 01 Aug 21:44:29 21:46:59 14° 49° (NE) 21:49:28 437.025 FM, 437.400 FM
SO-50 01 Aug 21:45:18 21:49:49 42° 246° (WSW) 21:54:22 436.795 FM
ISS 01 Aug 21:47:56 21:51:15 81° 316° (NW) 21:54:35 145.800 FM
FUNcube-1 01 Aug 21:49:49 21:52:35 17° 70° (ENE) 21:55:20 145.950 - 145.970 MHz USB
UKube-1 01 Aug 22:10:44 22:14:48 38° 261° (W) 22:18:53 145.840 MHz, 145.915 MHz
Oscar 11 01 Aug 22:51:54 22:55:30 26° 263° (W) 22:59:08 145.825 FM, Beacon 2401.500 USB
HO-68 01 Aug 23:10:22 23:13:41 14° 267° (W) 23:17:01 435.675 MHz FM
Sapphire 01 Aug 23:22:48 23:27:48 40° 109° (ESE) 23:32:49 437.095 MHz 1200 baud AX-25 AFSK
UOSAT-12 01 Aug 23:22:53 23:27:32 61° 245° (WSW) 23:32:05 437.025 FM, 437.400 FM
FUNcube-1 01 Aug 23:24:55 23:28:44 31° 262° (W) 23:32:30 145.950 - 145.970 MHz USB
ISS 01 Aug 23:28:14 23:28:26 10° 332° (NNW) 23:28:37 145.800 FM
RS-15 01 Aug 23:37:42 23:48:21 54° 250° (WSW) 23:59:29 29.354 - 29.394 USB, Beacon 29.352 USB
Oscar 10/S400 01 Aug 23:44:25 00:10:22 79° 177° (S) 09:51:59 145.825 - 145.975 CW/USB, Beacon 145.810 USB
PCSat 01 Aug 23:55:16 00:00:40 89° 292° (WNW) 00:06:06 145.825 MHz
Sapphire 02 Aug 01:07:05 01:11:18 23° 305° (NW) 01:15:34 437.095 MHz 1200 baud AX-25 AFSK
AO-40 02 Aug 01:26:55 02:42:02 14° 108° (ESE) 03:31:36 Beacon 2401.320
Oscar 19 02 Aug 01:28:11 01:31:10 15° 94° (E) 01:34:07 437.125 CW, 437.150 USB
PANSAT 02 Aug 01:28:54 01:30:47 13° 157° (SSE) 01:32:39 not established
PCSat 02 Aug 01:43:11 01:44:48 11° 311° (NW) 01:46:24 145.825 MHz
Oscar 16 02 Aug 01:55:57 02:00:34 32° 98° (E) 02:05:10 437.025 USB, Beacon 2401.1428
JAS-1B 02 Aug 01:59:57 02:03:29 13° 85° (E) 02:06:47 435.800 - 435.900 CW/SSB
ITAMSAT 1 02 Aug 02:26:12 02:30:30 26° 97° (E) 02:34:46 435.822 SSB
Uribyol 2 02 Aug 02:44:01 02:48:55 43° 100° (E) 02:53:48 436.500 FM
AO-27 02 Aug 02:46:06 02:51:02 43° 100° (E) 02:55:55 436.795 MHz FM
AO-Echo 02 Aug 02:47:48 02:52:34 46° 99° (E) 02:57:10 ?
Oscar 19 02 Aug 03:05:43 03:10:42 49° 287° (WNW) 03:15:40 437.125 CW, 437.150 USB
PANSAT 02 Aug 03:06:59 03:10:29 33° 168° (SSE) 03:14:00 not established
TMSAT-1 02 Aug 03:07:04 03:10:45 19° 95° (E) 03:14:25 436.925 FM
OPAL 02 Aug 03:19:42 03:23:09 19° 65° (ENE) 03:26:36 ?
Gurwin Techsat 1B 02 Aug 03:33:09 03:38:19 51° 100° (E) 03:43:26 435.225 FM
Oscar 16 02 Aug 03:35:36 03:39:42 24° 291° (WNW) 03:43:48 437.025 USB, Beacon 2401.1428
KITSAT 1 02 Aug 03:38:16 03:39:56 11° 99° (E) 03:41:36 435.175 FM
AO-7 02 Aug 03:40:05 03:41:27 10° 91° (E) 03:42:48 29.400 - 29.500 MHz
JAS-1B 02 Aug 03:46:26 03:55:24 88° 104° (ESE) 04:02:48 435.800 - 435.900 CW/SSB
ITAMSAT 1 02 Aug 04:05:29 04:09:54 29° 290° (WNW) 04:14:18 435.822 SSB
ISS 02 Aug 04:21:08 04:23:16 16° 33° (NNE) 04:25:24 145.800 FM
Uribyol 2 02 Aug 04:24:35 04:28:01 18° 293° (WNW) 04:31:27 436.500 FM
AO-27 02 Aug 04:26:42 04:30:09 18° 293° (WNW) 04:33:36 436.795 MHz FM
AO-Echo 02 Aug 04:28:03 04:30:51 15° 294° (WNW) 04:33:38 ?
TMSAT-1 02 Aug 04:45:50 04:50:46 41° 288° (WNW) 04:55:41 436.925 FM
PANSAT 02 Aug 04:46:42 04:50:25 46° 181° (S) 04:54:08 not established
Uosat F 02 Aug 04:48:37 04:53:18 40° 99° (E) 04:57:58 435.120 FM
OPAL 02 Aug 04:57:08 05:01:43 38° 259° (W) 05:06:19 ?
MaSat-1 02 Aug 05:07:01 05:09:36 14° 53° (NE) 05:12:06 437.345 MHz
Gurwin Techsat 1B 02 Aug 05:14:36 05:17:48 16° 294° (WNW) 05:21:00 435.225 FM
KITSAT 1 02 Aug 05:25:59 05:34:03 78° 114° (ESE) 05:42:10 435.175 FM
AO-7 02 Aug 05:26:52 05:35:12 77° 106° (ESE) 05:43:29 29.400 - 29.500 MHz
JAS-1B 02 Aug 05:39:09 05:44:23 18° 304° (NW) 05:49:13 435.800 - 435.900 CW/SSB
STRAND 1 02 Aug 05:51:00 05:53:41 14° 65° (ENE) 05:56:21 ?
Hamsat 02 Aug 05:53:45 05:55:38 13° 93° (E) 05:57:30 145.90 MHz
ISS 02 Aug 05:56:55 06:00:10 47° 228° (SW) 06:03:24 145.800 FM
JAS-2 02 Aug 05:58:15 06:00:03 12° 90° (E) 06:01:49 435.800 - 435.900 CW/SSB, 435.910 FM
Saudisat 1A 02 Aug 06:12:53 06:17:12 56° 115° (ESE) 06:21:31 436.775 MHz
PANSAT 02 Aug 06:26:53 06:30:20 31° 193° (SSW) 06:33:46 not established
Uosat F 02 Aug 06:28:20 06:31:45 19° 293° (WNW) 06:35:09 435.120 FM
MaSat-1 02 Aug 06:42:19 06:47:28 68° 251° (WSW) 06:52:08 437.345 MHz
AO-7 02 Aug 07:21:28 07:27:04 20° 302° (WNW) 07:32:39 29.400 - 29.500 MHz
KITSAT 1 02 Aug 07:24:19 07:30:15 22° 312° (NW) 07:36:12 435.175 FM
STRAND 1 02 Aug 07:27:18 07:32:20 56° 259° (W) 07:37:24 ?
Hamsat 02 Aug 07:27:38 07:31:44 42° 286° (WNW) 07:35:49 145.90 MHz
JAS-2 02 Aug 07:40:13 07:45:43 60° 286° (WNW) 07:50:49 435.800 - 435.900 CW/SSB, 435.910 FM
Saudisat 1A 02 Aug 07:54:54 07:57:06 13° 311° (NW) 07:59:18 436.775 MHz
SO-67 02 Aug 07:55:55 07:59:19 53° 100° (E) 08:02:42 435.3500 MHz FM
PANSAT 02 Aug 08:08:35 08:10:01 12° 204° (SSW) 08:11:27 not established
Sapphire 02 Aug 08:16:53 08:19:36 14° 51° (NE) 08:22:19 437.095 MHz 1200 baud AX-25 AFSK
PCSat 02 Aug 08:48:22 08:53:00 28° 57° (ENE) 08:57:35 145.825 MHz
HO-68 02 Aug 08:52:44 08:57:34 19° 95° (E) 09:02:22 435.675 MHz FM
Sapphire 02 Aug 09:58:09 10:03:34 74° 247° (WSW) 10:08:57 437.095 MHz 1200 baud AX-25 AFSK
UKube-1 02 Aug 10:03:22 10:07:35 49° 100° (E) 10:11:46 145.840 MHz, 145.915 MHz
SO-50 02 Aug 10:17:34 10:20:05 15° 108° (ESE) 10:22:36 436.795 FM
PCSat 02 Aug 10:31:34 10:36:21 32° 252° (WSW) 10:41:05 145.825 MHz
HO-68 02 Aug 10:38:35 10:45:37 63° 289° (WNW) 10:52:38 435.675 MHz FM
Oscar 11 02 Aug 10:43:13 10:47:35 78° 102° (ESE) 10:51:55 145.825 FM, Beacon 2401.500 USB
FUNcube-1 02 Aug 11:17:53 11:22:05 68° 101° (E) 11:26:21 145.950 - 145.970 MHz USB
UKube-1 02 Aug 11:41:47 11:43:18 12° 294° (WNW) 11:44:50 145.840 MHz, 145.915 MHz
RS-15 02 Aug 11:43:59 11:53:53 38° 107° (ESE) 12:03:30 29.354 - 29.394 USB, Beacon 29.352 USB
SO-50 02 Aug 11:56:01 12:00:13 41° 302° (WNW) 12:04:31 436.795 FM
Oscar 19 02 Aug 12:41:25 12:44:07 15° 65° (ENE) 12:46:50 437.125 CW, 437.150 USB
JAS-1B 02 Aug 12:41:31 12:43:00 10° 51° (NE) 12:44:29 435.800 - 435.900 CW/SSB
Oscar 16 02 Aug 13:08:44 13:13:07 30° 70° (ENE) 13:17:31 437.025 USB, Beacon 2401.1428
KITSAT 1 02 Aug 13:25:56 13:31:12 18° 45° (NE) 13:36:26 435.175 FM
UOSAT-12 02 Aug 13:29:26 13:33:58 68° 299° (WNW) 13:38:37 437.025 FM, 437.400 FM
ITAMSAT 1 02 Aug 13:39:59 13:44:14 26° 69° (ENE) 13:48:29 435.822 SSB
RS-15 02 Aug 13:54:58 14:05:45 53° 304° (NW) 14:16:23 29.354 - 29.394 USB, Beacon 29.352 USB
AO-Echo 02 Aug 13:55:41 14:00:36 40° 72° (ENE) 14:05:31 ?
Uribyol 2 02 Aug 13:57:27 14:02:18 41° 72° (ENE) 14:07:09 436.500 FM
AO-27 02 Aug 13:59:46 14:04:39 42° 72° (ENE) 14:09:33 436.795 MHz FM
Oscar 19 02 Aug 14:17:58 14:22:57 54° 259° (W) 14:27:58 437.125 CW, 437.150 USB
JAS-1B 02 Aug 14:22:30 14:31:09 55° 69° (ENE) 14:40:39 435.800 - 435.900 CW/SSB
TMSAT-1 02 Aug 14:23:42 14:27:26 20° 67° (ENE) 14:31:10 436.925 FM
AO-7 02 Aug 14:34:26 14:37:21 12° 53° (NE) 14:40:14 29.400 - 29.500 MHz
Saudisat 1A 02 Aug 14:45:28 14:47:44 14° 50° (NE) 14:49:59 436.775 MHz
Oscar 16 02 Aug 14:48:13 14:52:23 25° 264° (W) 14:56:35 437.025 USB, Beacon 2401.1428
Gurwin Techsat 1B 02 Aug 14:49:41 14:54:48 51° 73° (ENE) 14:59:57 435.225 FM
ITAMSAT 1 02 Aug 15:19:00 15:23:33 30° 262° (W) 15:28:07 435.822 SSB
KITSAT 1 02 Aug 15:19:33 15:27:40 88° 64° (ENE) 15:35:44 435.175 FM
AO-Echo 02 Aug 15:35:31 15:39:24 21° 265° (W) 15:43:19 ?
Uribyol 2 02 Aug 15:38:21 15:41:52 18° 265° (W) 15:45:25 436.500 FM
AO-27 02 Aug 15:40:44 15:44:16 18° 265° (W) 15:47:49 436.795 MHz FM
Uosat F 02 Aug 15:57:31 16:02:03 35° 71° (ENE) 16:06:35 435.120 FM
TMSAT-1 02 Aug 16:02:01 16:07:00 41° 261° (W) 16:12:00 436.925 FM
JAS-1B 02 Aug 16:14:02 16:21:47 33° 266° (W) 16:30:19 435.800 - 435.900 CW/SSB
RS-15 02 Aug 16:16:18 16:21:27 14° 332° (NNW) 16:26:35 29.354 - 29.394 USB, Beacon 29.352 USB
AO-7 02 Aug 16:20:20 16:28:37 70° 70° (ENE) 16:36:55 29.400 - 29.500 MHz
Saudisat 1A 02 Aug 16:23:20 16:27:37 54° 245° (WSW) 16:31:53 436.775 MHz
Gurwin Techsat 1B 02 Aug 16:31:59 16:34:59 15° 267° (W) 16:38:01 435.225 FM
